Weather reports worldwide

Advertisment
Lentran, United Kingdom (99125): temperature & dewpoint: 17.05.2019 13:00:00 - 23.05.2019 13:00:00 (BST)Lentran, United Kingdom (99125): precipitation: 17.05.2019 13:00:00 - 23.05.2019 13:00:00 (BST)
Date & Time tt [°C] td [°C] rr [mm]
23.05.2019 13:00:00 - - -
23.05.2019 12:00:00 11,9 8,0 0,0
23.05.2019 11:00:00 9,9 6,8 0,0
23.05.2019 10:00:00 9,6 7,1 0,0
23.05.2019 09:00:00 9,2 6,7 0,0
23.05.2019 08:00:00 9,0 6,9 0,0
23.05.2019 07:00:00 8,7 6,7 0,0
23.05.2019 06:00:00 8,5 6,8 0,0
23.05.2019 05:00:00 8,5 6,6 0,0
23.05.2019 04:00:00 8,4 6,8 0,0
23.05.2019 03:00:00 8,7 6,7 0,0
23.05.2019 02:00:00 8,9 6,6 0,0
23.05.2019 01:00:00 8,8 6,8 0,0
23.05.2019 00:00:00 8,8 7,4 0,0
22.05.2019 23:00:00 9,5 6,7 0,0
22.05.2019 22:00:00 9,6 6,8 0,0
22.05.2019 21:00:00 9,6 7,2 0,0
22.05.2019 20:00:00 9,7 7,3 0,0
22.05.2019 19:00:00 10,0 7,5 0,0
22.05.2019 18:00:00 10,1 8,3 0,0
22.05.2019 17:00:00 10,3 8,0 0,0
22.05.2019 16:00:00 10,9 7,5 0,0
22.05.2019 15:00:00 11,0 7,4 0,0
22.05.2019 14:00:00 10,9 7,5 0,0
22.05.2019 13:00:00 11,0 7,3 0,0
22.05.2019 12:00:00 10,9 7,7 0,0
22.05.2019 11:00:00 10,0 8,4 0,2
22.05.2019 10:00:00 9,4 7,7 0,0
22.05.2019 09:00:00 8,7 7,2 0,0
22.05.2019 08:00:00 8,2 6,7 0,0
22.05.2019 07:00:00 7,4 6,3 1,2
22.05.2019 06:00:00 7,0 5,9 1,4
22.05.2019 05:00:00 7,3 5,2 0,0
22.05.2019 04:00:00 7,1 4,6 0,0
22.05.2019 03:00:00 7,4 4,0 0,0
22.05.2019 02:00:00 7,8 3,4 0,0
22.05.2019 01:00:00 7,3 3,3 0,0
22.05.2019 00:00:00 7,4 3,9 0,0
21.05.2019 23:00:00 7,4 4,3 0,0
21.05.2019 22:00:00 7,7 4,0 0,0
21.05.2019 21:00:00 10,7 5,0 0,0
21.05.2019 20:00:00 11,4 4,3 0,0
21.05.2019 19:00:00 11,1 5,9 0,2
21.05.2019 18:00:00 11,4 5,6 0,0
21.05.2019 17:00:00 11,8 5,7 0,0
21.05.2019 16:00:00 9,9 7,5 0,4
21.05.2019 15:00:00 13,5 6,0 1,0
21.05.2019 14:00:00 12,2 4,8 0,0
21.05.2019 13:00:00 12,6 5,1 0,0
21.05.2019 12:00:00 11,0 5,8 0,0
21.05.2019 11:00:00 12,2 6,7 0,0
21.05.2019 10:00:00 11,3 7,3 0,0
21.05.2019 09:00:00 8,9 6,6 0,0
21.05.2019 08:00:00 7,9 6,5 0,0
21.05.2019 07:00:00 7,5 6,4 0,0
21.05.2019 06:00:00 7,4 6,6 0,0
21.05.2019 05:00:00 7,3 6,6 0,0
21.05.2019 04:00:00 7,2 6,9 0,0
21.05.2019 03:00:00 7,2 6,8 0,2
21.05.2019 02:00:00 7,5 7,0 0,4
21.05.2019 01:00:00 8,0 6,9 1,4
21.05.2019 00:00:00 8,4 7,5 1,2
20.05.2019 23:00:00 9,1 7,6 0,4
20.05.2019 22:00:00 9,7 7,9 0,0
20.05.2019 21:00:00 10,0 8,3 0,0
20.05.2019 20:00:00 10,7 9,5 0,0
20.05.2019 19:00:00 11,0 9,8 0,2
20.05.2019 18:00:00 11,1 10,2 1,4
20.05.2019 17:00:00 11,4 10,0 1,2
20.05.2019 16:00:00 11,5 9,5 0,0
20.05.2019 15:00:00 13,0 10,0 0,0
20.05.2019 14:00:00 12,1 9,1 0,0
20.05.2019 13:00:00 13,1 10,7 0,0
20.05.2019 12:00:00 11,6 8,7 0,0
20.05.2019 11:00:00 12,5 9,0 0,0
20.05.2019 10:00:00 12,2 10,1 0,0
20.05.2019 09:00:00 11,3 10,2 0,0
20.05.2019 08:00:00 10,3 9,9 0,0
20.05.2019 07:00:00 9,5 9,3 0,0
20.05.2019 06:00:00 8,9 8,7 0,4
20.05.2019 05:00:00 9,0 8,8 1,6
20.05.2019 04:00:00 9,1 8,8 0,8
20.05.2019 03:00:00 9,2 8,9 0,2
20.05.2019 02:00:00 9,4 9,1 0,4
20.05.2019 01:00:00 9,5 9,2 0,2
20.05.2019 00:00:00 9,7 9,3 0,0
19.05.2019 23:00:00 9,9 9,1 0,4
19.05.2019 22:00:00 10,3 9,8 0,0
19.05.2019 21:00:00 10,7 10,2 0,0
19.05.2019 20:00:00 11,3 10,5 0,4
19.05.2019 19:00:00 11,7 10,9 1,0
19.05.2019 18:00:00 12,9 11,0 0,8
19.05.2019 17:00:00 13,5 9,7 0,0
19.05.2019 16:00:00 13,2 10,5 0,0
19.05.2019 15:00:00 13,4 10,0 0,0
19.05.2019 14:00:00 14,6 9,3 0,0
19.05.2019 13:00:00 13,4 9,7 0,0
19.05.2019 12:00:00 12,5 10,0 0,0
19.05.2019 11:00:00 11,9 9,3 0,0
19.05.2019 10:00:00 11,3 9,7 0,0
19.05.2019 09:00:00 10,4 9,9 0,0
19.05.2019 08:00:00 10,1 10,0 0,0
19.05.2019 07:00:00 9,5 9,5 0,0
19.05.2019 06:00:00 8,6 8,6 0,0
19.05.2019 05:00:00 8,4 8,3 0,0
19.05.2019 04:00:00 8,5 8,3 0,0
19.05.2019 03:00:00 8,8 8,6 0,0
19.05.2019 02:00:00 9,2 9,0 0,0
19.05.2019 01:00:00 9,3 9,2 0,0
19.05.2019 00:00:00 9,3 9,2 0,0
18.05.2019 23:00:00 9,3 9,2 0,0
18.05.2019 22:00:00 9,2 9,1 0,0
18.05.2019 21:00:00 9,1 9,0 0,4
18.05.2019 20:00:00 9,0 8,9 0,4
18.05.2019 19:00:00 9,1 8,9 0,4
18.05.2019 18:00:00 9,0 8,6 0,2
18.05.2019 17:00:00 9,2 8,7 0,4
18.05.2019 16:00:00 9,3 8,6 1,0
18.05.2019 15:00:00 9,6 8,5 0,6
18.05.2019 14:00:00 9,9 9,2 0,6
18.05.2019 13:00:00 9,5 9,0 1,0
18.05.2019 12:00:00 8,9 8,3 1,0
18.05.2019 11:00:00 9,0 7,8 0,2
18.05.2019 10:00:00 8,9 8,1 0,0
18.05.2019 09:00:00 8,9 8,0 0,0
18.05.2019 08:00:00 9,4 8,9 0,0
18.05.2019 07:00:00 9,2 9,1 0,0
18.05.2019 06:00:00 8,7 8,5 0,0
18.05.2019 05:00:00 8,3 8,1 0,2
18.05.2019 04:00:00 8,4 8,1 0,0
18.05.2019 03:00:00 8,4 8,1 0,0
18.05.2019 02:00:00 8,7 8,3 0,0
18.05.2019 01:00:00 8,6 8,0 0,6
18.05.2019 00:00:00 8,7 7,9 2,0
17.05.2019 23:00:00 9,7 7,7 0,0
17.05.2019 22:00:00 9,3 7,3 0,0
17.05.2019 21:00:00 10,5 7,1 0,0
17.05.2019 20:00:00 11,9 6,6 0,0
17.05.2019 19:00:00 12,8 6,5 0,0
17.05.2019 18:00:00 13,5 6,9 0,0
17.05.2019 17:00:00 13,2 7,2 0,0
17.05.2019 16:00:00 14,3 6,9 0,0
17.05.2019 15:00:00 14,3 5,2 0,0
17.05.2019 14:00:00 15,2 5,9 0,0
17.05.2019 13:00:00 14,5 5,4 0,0

tt = temperature
td = dewpoint
rr = precipitation

Next stations